Home   Weather   Renens   Past weeks

Flag for Switzerland Past Weather in Renens, Vaud, Switzerland — Yesterday and Last 2 Weeks

Now
32 °F

Fog.


Feels Like: 26 °F
Forecast: 32 / 44 °F
Wind: 6 mph from South

Location: Aigle

Current Time: Dec 11, 2016 at 11:16:28 am

Latest Report: Dec 11, 2016 at 10:00 am


Visibility: 0 mi

Pressure: 30.42 "Hg

Humidity: 97%

Dew Point: 31 °F

Location of RenensLocation

Past Weather in Renens — Graph

°F

Renens Temperature Yesterday

Maximum temperature yesterday: 39 °F (at 3:00 pm)
Minimum temperature yesterday: 30 °F (at 7:00 am)
Average temperature yesterday: 33 °F

High & Low Weather Summary for the Past Weeks

 TemperatureHumidityPressure
High49 °F (Nov 27, 2:00 pm)100% (Nov 27, 1:00 am)30.72 "Hg (Nov 27, 1:00 am)
Low25 °F (Dec 9, 5:00 am)46% (Dec 1, 2:00 pm)29.96 "Hg (Nov 27, 3:00 pm)
Average34 °F88%30.37 "Hg
* Reported Nov 26 9:00 am — Dec 11 9:00 am, Renens, Weather by CustomWeather, © 2016

Note: Actual official high and low records may vary slightly from our data, if they occured in-between our weather recording intervals... More about our weather records

Advertising

Renens Weather History for the Previous 24 Hours

Scroll right to see more
 ConditionsComfort  
Time TempWeatherWind HumidityBarometerVisibility
9:00 am
Sun, Dec 11
30 °FChilly.1 mph100%30.41 "HgN/A
7:00 am32 °FFog.7 mph96%30.38 "Hg0 mi
6:00 am32 °FChilly.2 mph97%30.39 "HgN/A
5:00 am32 °FChilly.5 mph97%30.36 "HgN/A
4:00 am32 °FFog.No wind100%30.35 "Hg0 mi
3:00 am32 °FChilly.2 mph98%30.36 "HgN/A
2:00 am33 °FChilly.3 mph98%30.37 "HgN/A
1:00 am34 °FChilly.1 mph97%30.37 "HgN/A
12:00 am33 °FChilly.1 mph99%30.38 "HgN/A
11:00 pm
Sat, Dec 10
34 °FChilly.1 mph97%30.38 "HgN/A
10:00 pm33 °FChilly.2 mph97%30.38 "HgN/A
9:00 pm33 °FChilly.5 mph93%30.40 "HgN/A
8:00 pm31 °FChilly.1 mph96%30.41 "HgN/A
7:00 pm31 °FFog.1 mph97%30.41 "Hg5 mi
6:00 pm32 °FChilly.No wind96%30.42 "HgN/A
5:00 pm33 °FChilly.1 mph93%30.41 "HgN/A
4:00 pm35 °FSunny.1 mph91%30.40 "Hg12 mi
3:00 pm39 °FChilly.2 mph80%30.39 "HgN/A
2:00 pm39 °FChilly.1 mph90%30.40 "HgN/A
1:00 pm35 °FFog.2 mph97%30.45 "Hg1 mi
12:00 pm33 °FChilly.1 mph100%30.47 "HgN/A
11:00 am32 °FChilly.2 mph98%30.49 "HgN/A
Weather by CustomWeather, © 2016

See weather overviewHow to use our weather pages